COSMOS 2499 DEB, 56575

Orbit data source: Space-Track

COSMOS 2499 DEB, 56575 is space debris in LEO originally from a launch on Fri, 23 May 2014 UTC launched from the Plesetsk Missile And Space Complex (PKMTR). Debris objects in space refer to the collection of defunct objects orbiting the Earth. Examples of debris include non-operational satellites, rocket bodies, and fragments generated from explosions, collisions, or faulty payload assembly.

Loading next visibility...
Identifier
56575, 2014-028BJ
Orbit
LEO
Country
Flag of CISCIS
Related business
Manufacturer
TsNIIKhM
Mission
Spacecraft
Bus & Motor
Unknown
Mass
Unknown
Launch date (UTC)
2014-05-23 (12 years ago)
Launch vehicle
Unknown
Launch site
Plesetsk Missile And Space Complex (PKMTR)
Object type
Payload
Rocket body
Debris
Shape & HBR
Unknown shape, 0.1 m
Radar Cross Section
Small (<0.1 m²)

Expand to show TLE details & history
Last TLE update: 19 hours ago

TLE from 19 hours ago
0 COSMOS 2499 DEB
1 56575U 14028BJ  25349.77834699  .00000202  00000-0  74839-3 0  9997
2 56575  82.2949   3.9461 0203553  90.1543 272.2883 12.81380963136303
Epoch: 2025-12-15T18:40Z
TLE epoch observation values (Epoch: 2025-12-15T18:40:49.179Z)
Latitude
-0.00008°
Longitude
-0.93085°
Altitude
1,335.598 km
Speed
7.191 km/s
True Right ascension
00h 15m 47s
True Declination
0° 00' 00"
Sunlit
Object was in daylight at epoch
Visualization orbit readout
Latitude
Unknown
Longitude
Unknown
Altitude
Unknown
Speed
Unknown
Apparent Right ascension
Unknown
Apparent Declination
Unknown
Sunlit
N/A
Visualization observer readout
Local Sidereal Time
12:48:05
Azimuth
Unknown
Elevation
Unknown
Doppler factor
Unknown
Orbital elements
Apogee altitude
1,490.193 km
Perigee altitude
1,176.259 km
Semi-major axis
7,711.363 km
Eccentricity
0.02036
Inclination
82.2949°
RAAN
3.9461°
Arg. of periapsis
90.1543°
True anomaly
269.95589°
Mean anomaly
272.2883°
Eccentric anomaly
271.12225°
Mean motion
3.20514 °/min
Orbital period
112.32 mins
BSTAR
0.00074839
Loading maneuver chart data...
Computing Atmospheric mass density...
Loading historical data...
Loading historical data...
Loading historical data...
Loading historical data...
Loading historical data...
Loading historical data...
Loading historical data...

Documentation

Showing up to 5 results
|